[[{"header":{"parameterUnit":"m.s-1","parameterCategory":1,"la1":30.2991,"la2":30.254,"lo1":-89.0895,"lo2":-89.0444,"dy":0.0017,"dx":0.0017,"nx":28,"ny":28,"refTime":"2025-01-19T03:00:00:Z","depth":0,"parameterNumber":2,"parameterNumberName":"U-component_of_WINDS"},"data":[0,0,0,0,0,0,0,0,0,0,0,0,0,0,0,0,0,0,0,0,0,0,0,0,0,0,0,0,0,0,0,0,0,0,0,0,0,0,0,0,0,0,0,0,0,0,0,0,0,0,0,0,0,0,0,0,0,0,-3.1716,-3.1717,0,-3.1766,-3.1767,-3.1767,-3.1705,-3.1702,-3.17,-3.1698,-3.175,-3.1753,-3.1757,0,0,0,0,0,0,0,0,0,0,0,0,0,-3.1567,-3.157,-3.1716,-3.1717,-3.1718,-3.1766,-3.1767,-3.1767,-3.1705,-3.1702,-3.1699,-3.1697,-3.1749,-3.1753,-3.1757,0,0,0,0,0,0,0,0,0,0,0,0,0,-3.1626,-3.1571,-3.1716,-3.1692,-3.1691,-3.1766,-3.1767,-3.1768,-3.1706,-3.1702,-3.1699,-3.1696,-3.1747,-3.1752,-3.1757,-3.1859,0,0,-3.1774,-3.1776,0,0,0,0,0,0,0,0,-3.1623,-3.1632,-3.1695,-3.1694,-3.1692,-3.1726,-3.1733,-3.1798,-3.1706,-3.17,-3.1698,-3.1694,-3.1745,-3.175,-3.1767,-3.1861,-3.1864,-3.1774,-3.1777,-3.178,-3.1781,0,0,0,0,0,0,0,-3.1619,-3.1629,-3.1736,-3.1696,-3.1694,-3.1679,-3.1684,-3.1745,-3.1741,-3.17,-3.1696,-3.1703,-3.1743,-3.1762,-3.1767,-3.1864,-3.1774,-3.1779,-3.1782,-3.1784,-3.2045,-3.2049,0,0,0,0,0,0,-3.1618,-3.1626,-3.1734,-3.1737,-3.1648,-3.1685,-3.169,-3.1718,-3.174,-3.174,-3.1705,-3.1699,-3.1754,-3.1761,-3.1769,-3.189,-3.1779,-3.1784,-3.1787,-3.2041,-3.2046,-3.205,0,0,0,0,0,0,-3.1615,-3.1628,-3.1732,-3.1681,-3.1693,-3.1691,-3.1724,-3.1721,-3.174,-3.1744,-3.1743,-3.1725,-3.1752,-3.1762,-3.1837,-3.1891,-3.1787,-3.1792,-3.2037,-3.2043,-3.2048,-3.2132,0,0,0,0,0,0,-3.1611,-3.1627,-3.1666,-3.1682,-3.1696,-3.18,-3.1727,-3.1725,-3.1749,-3.1742,-3.1762,-3.1763,-3.175,-3.183,-3.1842,-3.1896,-3.1796,-3.2032,-3.2039,-3.2046,-3.2125,-3.214,-3.2153,0,0,0,0,0,-3.1606,-3.1688,-3.1668,-3.1681,-3.1744,-3.1803,-3.1811,-3.1795,-3.1754,-3.1793,-3.1795,-3.1762,-3.1882,-3.1838,-3.1852,-3.1908,-3.2029,-3.2037,-3.2046,-3.2118,-3.2137,-3.2153,0,0,0,0,0,0,-3.1678,-3.1689,-3.1668,-3.1757,-3.178,-3.1792,-3.1841,-3.1815,-3.185,-3.1841,-3.182,-3.1825,-3.1906,-3.1914,-3.1864,-3.2007,-3.1949,-3.196,-3.1999,-3.2017,-3.2031,-3.2028,-3.18,0,0,0,0,0,-3.1704,-3.1751,-3.1758,-3.1837,-3.1849,-3.1843,-3.1868,-3.1854,-3.1876,-3.1885,-3.1893,-3.1917,-3.196,-3.1989,-3.2028,-3.2125,-3.2129,-3.217,-3.2185,-3.2196,-3.2207,-3.226,-3.2278,-3.2078,-3.2078,-3.2078,0,0,-3.176,-3.1771,-3.1802,-3.1852,-3.1867,-3.1917,-3.1852,-3.1907,-3.1943,-3.1894,-3.1966,-3.1973,-3.1997,-3.2084,-3.2122,-3.2093,-3.2263,-3.2207,-3.2217,-3.2221,-3.227,-3.2289,-3.2306,-3.2084,-3.2082,-3.2082,0,0,-3.1886,-3.1899,-3.1966,-3.1983,-3.2007,-3.2002,-3.2019,-3.2035,-3.2038,-3.2109,-3.2074,-3.2116,-3.2191,-3.221,-3.2229,-3.2362,-3.2333,-3.2375,-3.2451,-3.2502,-3.2518,-3.2532,-3.258,-3.2598,-3.2386,-3.2386,-3.2386,0,-3.1951,-3.2024,-3.2004,-3.2062,-3.2085,-3.2041,-3.211,-3.2127,-3.2163,-3.218,-3.2146,-3.2239,-3.2252,-3.2343,-3.2376,-3.2392,-3.2411,-3.2374,-3.2517,-3.2531,-3.2544,-3.259,-3.2608,-3.2391,-3.239,-3.239,-3.2389,0,-3.2104,-3.2155,-3.2206,-3.2243,-3.2271,-3.2334,-3.2323,-3.2354,-3.2337,-3.2336,-3.241,-3.2424,-3.2466,-3.2486,-3.247,-3.2575,-3.2556,-3.252,-3.2461,-3.2568,-3.2611,-3.2628,-3.2398,-3.2397,-3.2395,-3.2394,0,0,-3.2279,-3.2302,-3.2322,-3.2338,-3.2361,-3.24,-3.246,-3.2501,-3.2529,-3.2555,-3.2606,-3.2669,-3.2636,-3.2658,-3.2644,-3.2688,-3.2794,-3.2647,-3.2647,-3.2675,-3.2911,-3.294,-3.296,-3.2774,-3.2777,-3.278,-3.291,0,-3.2406,-3.2511,-3.2494,-3.2596,-3.2643,-3.2602,-3.2655,-3.2675,-3.2676,-3.2716,-3.2716,-3.2762,-3.2714,-3.2727,-3.2769,-3.2772,-3.2841,-3.2762,-3.2822,-3.2824,-3.2819,-3.2982,-3.3012,-3.3134,-3.2926,-3.2929,-3.2931,0,-3.2569,-3.2601,-3.2707,-3.2723,-3.2742,-3.279,-3.2826,-3.2865,-3.2887,-3.2884,-3.2908,-3.2885,-3.2946,-3.2885,-3.2968,-3.2915,-3.2938,-3.2943,-3.2947,-3.2953,-3.2885,-3.2994,-3.3173,-3.3192,-3.2957,-3.2955,-3.2953,0,-3.2687,-3.2757,-3.283,-3.2844,-3.2864,-3.2899,-3.2909,-3.2927,-3.2953,-3.2984,-3.3001,-3.3039,-3.306,-3.309,-3.3078,-3.3035,-3.3165,-3.3102,-3.3165,-3.3165,-3.3195,-3.3194,-3.3382,-3.3208,-3.3208,-3.3207,-3.3207,0,-3.2832,-3.2899,-3.2883,-3.2928,-3.3002,-3.2982,-3.3055,-3.306,-3.3077,-3.3122,-3.3089,-3.3132,-3.3112,-3.3154,-3.3145,-3.3216,-3.3226,-3.3226,-3.3223,-3.323,-3.323,-3.3246,-3.3237,-3.3212,-3.3211,-3.321,-3.3209,0,-3.2978,-3.2969,-3.3046,-3.3059,-3.3063,-3.3117,-3.3128,-3.317,-3.3167,-3.3225,-3.3238,-3.3234,-3.3281,-3.3272,-3.3324,-3.3318,-3.3407,-3.3393,-3.34,-3.3397,-3.3461,-3.3456,-3.3667,-3.3694,-3.3501,-3.3503,-3.3505,0,-3.3071,-3.3122,-3.314,-3.3168,-3.318,-3.3226,-3.3252,-3.3233,-3.3262,-3.329,-3.3329,-3.3373,-3.3408,-3.3486,-3.3488,-3.3528,-3.3515,-3.3587,-3.3521,-3.3527,-3.3518,-3.3516,-3.3521,-3.36,-3.3602,-3.3604,-3.3606,0,-3.3239,-3.3233,-3.3271,-3.3309,-3.3341,-3.3369,-3.3395,-3.342,-3.3403,-3.3437,-3.3485,-3.3512,-3.3565,-3.361,-3.3647,-3.3657,-3.363,-3.3626,-3.3643,-3.3651,-3.3654,-3.3655,-3.3437,-3.3622,-3.362,-3.3619,-3.3618,-3.3617,-3.3363,-3.3406,-3.3425,-3.347,-3.3487,-3.3511,-3.3552,-3.3554,-3.3593,-3.3636,-3.3622,-3.3677,-3.3697,-3.3744,-3.3758,-3.3801,-3.3775,-3.3799,-3.3805,-3.3812,-3.382,-3.3646,-3.3808,-3.3807,-3.3807,-3.3806,-3.3806,0,-3.353,-3.354,-3.3581,-3.3618,-3.3653,-3.3622,-3.3648,-3.368,-3.3729,-3.375,-3.3784,-3.384,-3.3883,-3.3888,-3.3929,-3.3962,-3.3951,-3.3974,-3.3972,-3.3975,-3.3841,-3.3823,-3.3983,-3.3983,-3.3983,-3.3983,-3.3983,-3.3983,-3.3621,-3.3693,-3.3689,-3.3769,-3.3778,-3.3832,-3.385,-3.3872,-3.3889,-3.3952,-3.3988,-3.3991,-3.4005,-3.4047,-3.4085,-3.4085,-3.4103,-3.4131,-3.4127,-3.4002,-3.3984,-3.3968,-3.3951,-3.4135,-3.4135,-3.4258,-3.4259,-3.426]},{"header":{"parameterUnit":"m.s-1","parameterCategory":1,"la1":30.2991,"la2":30.254,"lo1":-89.0895,"lo2":-89.0444,"dy":0.0017,"dx":0.0017,"nx":28,"ny":28,"refTime":"2025-01-19T03:00:00:Z","depth":0,"parameterNumber":3,"parameterNumberName":"V-component_of_WINDS"},"data":[0,0,0,0,0,0,0,0,0,0,0,0,0,0,0,0,0,0,0,0,0,0,0,0,0,0,0,0,0,0,0,0,0,0,0,0,0,0,0,0,0,0,0,0,0,0,0,0,0,0,0,0,0,0,0,0,0,0,-6.333,-6.3331,0,-6.3394,-6.3394,-6.3395,-6.3327,-6.3325,-6.3322,-6.332,-6.338,-6.3384,-6.3388,0,0,0,0,0,0,0,0,0,0,0,0,0,-6.3146,-6.315,-6.333,-6.3331,-6.3332,-6.3393,-6.3394,-6.3395,-6.3328,-6.3325,-6.3321,-6.3318,-6.3379,-6.3384,-6.3389,0,0,0,0,0,0,0,0,0,0,0,0,0,-6.3219,-6.3151,-6.333,-6.3306,-6.3304,-6.3393,-6.3394,-6.3395,-6.3328,-6.3324,-6.3321,-6.3317,-6.3377,-6.3383,-6.3389,-6.3504,0,0,-6.3408,-6.341,0,0,0,0,0,0,0,0,-6.3215,-6.3226,-6.3309,-6.3308,-6.3306,-6.3349,-6.3352,-6.3432,-6.3329,-6.3319,-6.332,-6.3315,-6.3373,-6.3379,-6.3399,-6.3507,-6.351,-6.3408,-6.3412,-6.3414,-6.3416,0,0,0,0,0,0,0,-6.321,-6.3223,-6.3355,-6.331,-6.3308,-6.329,-6.3296,-6.3366,-6.3367,-6.332,-6.3315,-6.3324,-6.3371,-6.3393,-6.34,-6.351,-6.3408,-6.3413,-6.3417,-6.3419,-6.3715,-6.3719,0,0,0,0,0,0,-6.3209,-6.3219,-6.3353,-6.3357,-6.325,-6.3297,-6.3303,-6.3339,-6.3366,-6.3366,-6.3327,-6.332,-6.3385,-6.3393,-6.3402,-6.3538,-6.3414,-6.342,-6.3424,-6.3711,-6.3716,-6.372,0,0,0,0,0,0,-6.3205,-6.3221,-6.335,-6.3287,-6.3302,-6.3304,-6.3344,-6.3342,-6.3364,-6.3371,-6.337,-6.335,-6.3382,-6.3393,-6.3479,-6.3539,-6.3423,-6.3428,-6.3706,-6.3712,-6.3718,-6.3811,0,0,0,0,0,0,-6.32,-6.322,-6.3265,-6.3289,-6.3306,-6.3429,-6.3348,-6.3346,-6.3375,-6.3367,-6.3393,-6.3393,-6.338,-6.3471,-6.3485,-6.3545,-6.3433,-6.37,-6.3709,-6.3716,-6.3803,-6.382,-6.3835,0,0,0,0,0,-6.3194,-6.3288,-6.3268,-6.3284,-6.3362,-6.3432,-6.3442,-6.3426,-6.3381,-6.3425,-6.3429,-6.3392,-6.353,-6.348,-6.3496,-6.3559,-6.3696,-6.3706,-6.3715,-6.3796,-6.3817,-6.3835,0,0,0,0,0,0,-6.3271,-6.3291,-6.3269,-6.3374,-6.3402,-6.3421,-6.3476,-6.3449,-6.349,-6.348,-6.3458,-6.3464,-6.3555,-6.3565,-6.3509,-6.3671,-6.3606,-6.3619,-6.3661,-6.3681,-6.3697,-6.3693,-6.3438,0,0,0,0,0,-6.33,-6.3357,-6.3371,-6.3462,-6.3478,-6.3475,-6.3505,-6.349,-6.3518,-6.3529,-6.354,-6.3567,-6.3616,-6.3649,-6.3695,-6.3804,-6.3808,-6.3855,-6.3871,-6.3884,-6.3895,-6.3953,-6.3974,-6.3751,-6.3751,-6.3751,0,0,-6.3361,-6.3379,-6.3416,-6.3478,-6.3498,-6.3556,-6.3485,-6.355,-6.3592,-6.3538,-6.3621,-6.3629,-6.3658,-6.3756,-6.38,-6.3767,-6.3958,-6.3896,-6.3906,-6.3911,-6.3965,-6.3986,-6.4005,-6.3758,-6.3757,-6.3756,0,0,-6.3502,-6.3522,-6.36,-6.3622,-6.3654,-6.3651,-6.367,-6.3693,-6.3697,-6.378,-6.3741,-6.379,-6.3875,-6.3897,-6.392,-6.4068,-6.4036,-6.4083,-6.4167,-6.4224,-6.4241,-6.4257,-6.4309,-6.4329,-6.4095,-6.4095,-6.4095,0,-6.3573,-6.3661,-6.3643,-6.3711,-6.3739,-6.3694,-6.3773,-6.3794,-6.3839,-6.3858,-6.3821,-6.3928,-6.3944,-6.4046,-6.4083,-6.4102,-6.4122,-6.4081,-6.424,-6.4256,-6.427,-6.432,-6.434,-6.4101,-6.41,-6.41,-6.4099,0,-6.3747,-6.3808,-6.3867,-6.3913,-6.3947,-6.402,-6.4012,-6.4049,-6.4031,-6.4032,-6.4116,-6.4133,-6.4182,-6.4205,-6.4187,-6.4305,-6.4283,-6.4244,-6.4178,-6.4297,-6.4344,-6.4363,-6.4109,-6.4107,-6.4105,-6.4104,0,0,-6.3939,-6.3974,-6.3996,-6.4016,-6.4048,-6.4094,-6.4164,-6.4212,-6.4244,-6.4276,-6.4333,-6.4407,-6.437,-6.4396,-6.438,-6.443,-6.4546,-6.4384,-6.4384,-6.4414,-6.4676,-6.4706,-6.4729,-6.4525,-6.4528,-6.4531,-6.4674,0,-6.4081,-6.4204,-6.419,-6.4307,-6.4362,-6.432,-6.4381,-6.4406,-6.4408,-6.4454,-6.4456,-6.4508,-6.4456,-6.4471,-6.4519,-6.4522,-6.4599,-6.4512,-6.4577,-6.4579,-6.4572,-6.4753,-6.4785,-6.4919,-6.4692,-6.4695,-6.4697,0,-6.4263,-6.4303,-6.4426,-6.4449,-6.4472,-6.4527,-6.457,-6.4615,-6.4642,-6.464,-6.4669,-6.4644,-6.4712,-6.4645,-6.4738,-6.4679,-6.4705,-6.471,-6.4715,-6.4721,-6.4646,-6.4764,-6.4961,-6.4982,-6.4726,-6.4723,-6.4721,0,-6.4391,-6.4475,-6.456,-6.4578,-6.4607,-6.4646,-6.466,-6.4683,-6.4713,-6.475,-6.4769,-6.4813,-6.4837,-6.4871,-6.4859,-6.4811,-6.4955,-6.4886,-6.4954,-6.4955,-6.4987,-6.4985,-6.5191,-6.5003,-6.5003,-6.5002,-6.5002,0,-6.4551,-6.4628,-6.4618,-6.467,-6.4754,-6.4736,-6.482,-6.4827,-6.4848,-6.49,-6.4865,-6.4914,-6.4895,-6.4942,-6.4932,-6.5011,-6.5022,-6.5021,-6.5018,-6.5025,-6.5025,-6.5041,-6.5032,-6.5007,-6.5006,-6.5005,-6.5004,0,-6.4709,-6.4705,-6.4794,-6.4814,-6.4821,-6.4882,-6.4899,-6.4947,-6.4946,-6.5012,-6.5026,-6.5025,-6.5078,-6.5069,-6.5128,-6.5121,-6.522,-6.5205,-6.5212,-6.5208,-6.5277,-6.5271,-6.5501,-6.553,-6.5323,-6.5325,-6.5327,0,-6.4811,-6.487,-6.4896,-6.4929,-6.4946,-6.4999,-6.503,-6.5014,-6.5047,-6.5082,-6.5126,-6.5176,-6.5216,-6.5304,-6.5307,-6.5352,-6.5338,-6.5415,-6.5344,-6.5349,-6.5339,-6.5336,-6.5341,-6.543,-6.5432,-6.5434,-6.5435,0,-6.4994,-6.499,-6.5036,-6.5083,-6.5121,-6.5156,-6.5187,-6.5215,-6.5202,-6.524,-6.5296,-6.5327,-6.5387,-6.5438,-6.548,-6.5491,-6.5461,-6.5458,-6.5476,-6.5484,-6.5485,-6.5486,-6.525,-6.5453,-6.5451,-6.545,-6.5449,-6.5448,-6.5128,-6.5178,-6.5204,-6.5257,-6.5279,-6.5309,-6.5356,-6.5361,-6.5408,-6.5457,-6.5444,-6.5506,-6.553,-6.5583,-6.56,-6.5647,-6.5618,-6.5645,-6.5651,-6.5658,-6.5667,-6.5478,-6.5655,-6.5654,-6.5654,-6.5653,-6.5653,0,-6.5309,-6.5324,-6.5373,-6.5419,-6.546,-6.5429,-6.5462,-6.5498,-6.5554,-6.558,-6.562,-6.5683,-6.5732,-6.5739,-6.5785,-6.5821,-6.5809,-6.5834,-6.5831,-6.5834,-6.569,-6.567,-6.5844,-6.5844,-6.5844,-6.5844,-6.5844,-6.5843,-6.5408,-6.5491,-6.549,-6.5582,-6.5596,-6.5659,-6.568,-6.5707,-6.5727,-6.58,-6.5841,-6.5846,-6.5864,-6.591,-6.5953,-6.5954,-6.5972,-6.6003,-6.5999,-6.5864,-6.5845,-6.5827,-6.5808,-6.6007,-6.6008,-6.6139,-6.614,-6.6141]}]]